Regional Weather Roundup
Issued by NWS

Home | Current Version | Previous Version | Graphics & Text | Print | Product List | Glossary On
Versions: 1 2 3 4 5 6 7 8 9 10 11 12 13 14 15 16 17 18 19 20 21 22 23 24 25 26 27 28 29 30 31 32 33 34 35 36 37 38 39 40 41 42 43 44 45 46 47 48 49 50
000
ASUS43 KLSX 281407
RWRMO

WEATHER SUMMARY FOR MISSOURI
NATIONAL WEATHER SERVICE SPRINGFIELD MO
800 AM CST WED JAN 28 2015

NOTE: "FAIR" INDICATES FEW OR NO CLOUDS BELOW 12,000 FEET WITH NO
       SIGNIFICANT WEATHER AND/OR OBSTRUCTIONS TO VISIBILITY.
       CURRENT SKY AND/OR WEATHER CONDITIONS ARE NOT AVAILABLE FOR
       CHILLICOTHE AND FARMINGTON.

MOZ001>031-035>038-043-044-053-054-281500-
...NORTHERN AND WESTERN MISSOURI...

CITY           SKY/WX    TMP DP  RH WIND       PRES   REMARKS
KANSAS CTY INT FAIR      40  31  70 S12       29.92F
KANSAS C DTWN  CLEAR     41  31  67 CALM      29.95F
LEE`S SUMMIT   CLEAR     42  31  64 S10       29.96F
ST JOSEPH      CLEAR     36  30  79 SE8       29.92F WCI  30
CHILLICOTHE      N/A     33  29  85 SE10      30.02F WCI  25
KIRKSVILLE     CLEAR     30  28  92 SE16      30.07S FOG     WCI  19

$$
MOZ066>068-077>081-088>096-101>105-281500-
...SOUTHWEST MISSOURI...

CITY           SKY/WX    TMP DP  RH WIND       PRES   REMARKS
SPRINGFIELD    CLEAR     39  33  79 S16G30    30.07F
JOPLIN         CLEAR     50  33  52 S10       30.03S

$$
MOZ032>034-039>042-045>050-055>058-069>072-281500-
...CENTRAL MISSOURI...

CITY           SKY/WX    TMP DP  RH WIND       PRES   REMARKS
COLUMBIA       CLEAR     32  29  88 SE18      30.08S WCI  20
JEFFERSON CITY CLEAR     33  29  85 E13       30.12S WCI  24
ROLLA          CLEAR     33  27  78 S18G28    30.11S WCI  22
SEDALIA        CLEAR     40  33  76 S15       30.04S
WHITEMAN AFB   CLEAR     41  34  75 S12       30.00S
WARRENSBURG    CLEAR     41  32  70 SE10      30.00S
OSAGE BEACH    CLEAR     37  28  70 S15G21    30.10R WCI  28

$$
MOZ051-052-059>065-281500-
...EAST CENTRAL MISSOURI...

CITY           SKY/WX    TMP DP  RH WIND       PRES   REMARKS
ST LOUIS INTL  MOCLDY    31  27  85 SE13      30.23F FOG     WCI  21
SPIRIT OF STL  PTCLDY    30  26  85 SE5       30.22S WCI  25
ST CHARLES     CLEAR     30  27  88 SE13      30.23F FOG     WCI  20

$$
MOZ072>076-082>087-097>100-106>115-281500-
...SOUTH CENTRAL AND SOUTHEAST MISSOURI...

CITY           SKY/WX    TMP DP  RH WIND       PRES   REMARKS
CAPE GIRARDEAU CLEAR     29  27  92 E6        30.30S WCI  23
FARMINGTON     CLEAR     28  25  86 MISG      30.26S
POPLAR BLUFF   CLEAR     32  27  81 CALM      30.29R
WEST PLAINS    CLEAR     31  27  85 SE7       30.21R WCI  24

$$


USA.gov is the U.S. government's official web portal to all federal, state and local government web resources and services.